When you browse on this site, cookies collect data to enhance your experience and personalize the content and advertising you see.
Visit our Privacy Policy to learn more. By continuing to use the site, you agree to this use of cookies and data.
  • In United Kingdom
  • List of Countries
  • For 7 days
  • Water Temperature
  • Weather Map
  • Weather Widgets
  • user-avatar
    Login

    Hourly Weather Burg bei Magdeburg

    Today, 21 August, Wednesday

    Time Temperature Precipitation Wind Pressure Humidity
    00:00 +17°C° 0 mm 2 mps 764 mmHg 67%
    01:00 +16°C° 0 mm 2 mps 764 mmHg 72%
    02:00 +15°C° 0 mm 2 mps 764 mmHg 75%
    03:00 +15°C° 0 mm 2 mps 764 mmHg 79%
    04:00 +14°C° 0 mm 2 mps 764 mmHg 82%
    05:00 +14°C° 0 mm 2 mps 765 mmHg 81%
    06:00 +14°C° 0 mm 3 mps 765 mmHg 80%
    07:00 +14°C° 0 mm 3 mps 766 mmHg 78%
    08:00 +17°C° 0 mm 3 mps 766 mmHg 70%
    09:00 +19°C° 0 mm 3 mps 766 mmHg 63%
    10:00 +20°C° 0 mm 3 mps 766 mmHg 55%
    11:00 +21°C° 0 mm 3 mps 766 mmHg 50%
    12:00 +22°C° 0 mm 3 mps 766 mmHg 45%
    13:00 +24°C° 0 mm 3 mps 766 mmHg 40%
    14:00 +24°C° 0 mm 3 mps 766 mmHg 39%
    15:00 +24°C° 0 mm 2 mps 766 mmHg 38%
    16:00 +24°C° 0 mm 2 mps 765 mmHg 37%
    17:00 +23°C° 0 mm 1 mps 765 mmHg 42%
    18:00 +21°C° 0 mm 1 mps 765 mmHg 47%
    19:00 +18°C° 0 mm 0 mps 766 mmHg 52%
    20:00 +17°C° 0 mm 0 mps 766 mmHg 54%
    21:00 +16°C° 0 mm 0 mps 766 mmHg 55%
    22:00 +15°C° 0 mm 0 mps 766 mmHg 56%
    23:00 +16°C° 0 mm 1 mps 766 mmHg 58%

    Tomorrow, 22 August, Thursday

    Time Temperature Precipitation Wind Pressure Humidity
    00:00 +16°C° 0 mm 1 mps 766 mmHg 59%
    01:00 +15°C° 0 mm 1 mps 766 mmHg 61%
    02:00 +15°C° 0 mm 1 mps 766 mmHg 63%
    03:00 +14°C° 0 mm 1 mps 766 mmHg 64%
    04:00 +14°C° 0 mm 1 mps 766 mmHg 66%
    05:00 +15°C° 0 mm 1 mps 766 mmHg 65%
    06:00 +15°C° 0 mm 2 mps 766 mmHg 64%
    07:00 +16°C° 0 mm 2 mps 766 mmHg 63%
    08:00 +18°C° 0 mm 2 mps 766 mmHg 57%
    09:00 +20°C° 0 mm 2 mps 766 mmHg 50%
    10:00 +24°C° 0 mm 3 mps 766 mmHg 44%
    11:00 +24°C° 0 mm 3 mps 765 mmHg 41%
    12:00 +25°C° 0 mm 2 mps 765 mmHg 38%
    13:00 +26°C° 0 mm 2 mps 765 mmHg 35%
    14:00 +26°C° 0 mm 2 mps 764 mmHg 35%
    15:00 +27°C° 0 mm 2 mps 764 mmHg 34%
    16:00 +27°C° 0 mm 1 mps 764 mmHg 33%
    17:00 +25°C° 0 mm 1 mps 764 mmHg 38%
    18:00 +23°C° 0 mm 1 mps 764 mmHg 43%
    19:00 +22°C° 0 mm 1 mps 764 mmHg 48%
    20:00 +21°C° 0 mm 1 mps 764 mmHg 50%
    21:00 +20°C° 0 mm 1 mps 764 mmHg 51%
    22:00 +19°C° 0 mm 1 mps 765 mmHg 52%
    23:00 +19°C° 0 mm 1 mps 765 mmHg 54%

    Day after tomorrow, 23 August, Friday

    Time Temperature Precipitation Wind Pressure Humidity
    00:00 +18°C° 0 mm 1 mps 765 mmHg 57%
    01:00 +18°C° 0 mm 1 mps 765 mmHg 59%
    02:00 +16°C° 0 mm 1 mps 765 mmHg 62%
    03:00 +16°C° 0 mm 1 mps 765 mmHg 66%
    04:00 +15°C° 0 mm 1 mps 765 mmHg 69%
    05:00 +16°C° 0 mm 1 mps 765 mmHg 68%
    06:00 +18°C° 0 mm 1 mps 765 mmHg 67%
    07:00 +19°C° 0 mm 1 mps 765 mmHg 66%
    08:00 +21°C° 0 mm 1 mps 765 mmHg 60%
    09:00 +23°C° 0 mm 2 mps 765 mmHg 54%
    10:00 +25°C° 0 mm 2 mps 765 mmHg 48%
    11:00 +26°C° 0 mm 2 mps 765 mmHg 44%
    12:00 +27°C° 0 mm 2 mps 764 mmHg 40%
    13:00 +28°C° 0 mm 2 mps 764 mmHg 37%
    14:00 +28°C° 0 mm 2 mps 764 mmHg 36%
    15:00 +28°C° 0 mm 2 mps 763 mmHg 35%
    16:00 +28°C° 0 mm 2 mps 763 mmHg 34%
    17:00 +27°C° 0 mm 2 mps 763 mmHg 40%
    18:00 +25°C° 0 mm 2 mps 763 mmHg 46%
    19:00 +23°C° 0 mm 1 mps 763 mmHg 52%
    20:00 +21°C° 0 mm 2 mps 763 mmHg 56%
    21:00 +20°C° 0 mm 2 mps 763 mmHg 59%
    22:00 +19°C° 0 mm 2 mps 764 mmHg 63%
    23:00 +19°C° 0 mm 2 mps 763 mmHg 67%

    24 August, Saturday

    Time Temperature Precipitation Wind Pressure Humidity
    00:00 +19°C° 0 mm 1 mps 763 mmHg 71%
    01:00 +19°C° 0 mm 1 mps 763 mmHg 75%
    02:00 +18°C° 0 mm 1 mps 763 mmHg 77%
    03:00 +18°C° 0 mm 1 mps 763 mmHg 80%
    04:00 +18°C° 0 mm 1 mps 763 mmHg 82%
    05:00 +18°C° 0 mm 1 mps 763 mmHg 80%
    06:00 +19°C° 0 mm 1 mps 763 mmHg 77%
    07:00 +19°C° 0 mm 2 mps 762 mmHg 74%
    08:00 +21°C° 0 mm 2 mps 762 mmHg 67%
    09:00 +24°C° 0 mm 2 mps 762 mmHg 61%
    10:00 +26°C° 0 mm 3 mps 762 mmHg 54%
    11:00 +27°C° 0 mm 3 mps 762 mmHg 51%
    12:00 +28°C° 0 mm 3 mps 762 mmHg 47%
    13:00 +29°C° 0 mm 3 mps 761 mmHg 44%
    14:00 +29°C° 0 mm 3 mps 761 mmHg 43%
    15:00 +29°C° 0 mm 3 mps 761 mmHg 42%
    16:00 +29°C° 0 mm 3 mps 761 mmHg 42%
    17:00 +28°C° 0 mm 3 mps 760 mmHg 48%
    18:00 +26°C° 0 mm 2 mps 760 mmHg 55%
    19:00 +25°C° 0 mm 2 mps 760 mmHg 61%
    20:00 +24°C° 0 mm 2 mps 760 mmHg 64%
    21:00 +23°C° 0 mm 2 mps 761 mmHg 66%
    22:00 +20°C° 0 mm 2 mps 761 mmHg 69%
    23:00 +20°C° 0 mm 2 mps 761 mmHg 72%

    25 August, Sunday

    Time Temperature Precipitation Wind Pressure Humidity
    00:00 +19°C° 0 mm 2 mps 760 mmHg 74%
    01:00 +18°C° 0 mm 2 mps 760 mmHg 76%
    02:00 +18°C° 0 mm 2 mps 760 mmHg 78%
    03:00 +18°C° 0 mm 2 mps 760 mmHg 79%
    04:00 +17°C° 0 mm 2 mps 760 mmHg 81%
    05:00 +18°C° 0 mm 2 mps 760 mmHg 78%
    06:00 +19°C° 0 mm 2 mps 760 mmHg 75%
    07:00 +19°C° 0 mm 2 mps 760 mmHg 73%
    08:00 +21°C° 0 mm 2 mps 760 mmHg 67%
    09:00 +24°C° 0 mm 2 mps 760 mmHg 62%
    10:00 +26°C° 0 mm 2 mps 760 mmHg 57%
    11:00 +27°C° 0 mm 2 mps 759 mmHg 54%
    12:00 +29°C° 0 mm 2 mps 759 mmHg 52%
    13:00 +30°C° 0 mm 1 mps 759 mmHg 49%
    14:00 +30°C° 0 mm 1 mps 759 mmHg 48%
    15:00 +30°C° 0 mm 1 mps 759 mmHg 47%
    16:00 +31°C° 0 mm 1 mps 758 mmHg 46%
    17:00 +29°C° 0 mm 1 mps 758 mmHg 52%
    18:00 +28°C° 0 mm 1 mps 758 mmHg 57%
    19:00 +26°C° 0 mm 1 mps 758 mmHg 63%
    20:00 +25°C° 0 mm 1 mps 758 mmHg 68%
    21:00 +24°C° 0 mm 1 mps 758 mmHg 72%
    22:00 +23°C° 0 mm 1 mps 759 mmHg 77%
    23:00 +23°C° 0 mm 1 mps 759 mmHg 80%

    26 August, Monday

    Time Temperature Precipitation Wind Pressure Humidity
    00:00 +20°C° 0 mm 0 mps 759 mmHg 82%
    01:00 +20°C° 0 mm 0 mps 759 mmHg 85%
    02:00 +20°C° 0 mm 0 mps 759 mmHg 85%
    03:00 +21°C° 0 mm 1 mps 758 mmHg 85%
    04:00 +21°C° 0 mm 1 mps 758 mmHg 85%
    05:00 +22°C° 0 mm 1 mps 759 mmHg 80%
    06:00 +23°C° 0 mm 1 mps 759 mmHg 75%
    07:00 +24°C° 0 mm 1 mps 759 mmHg 71%
    08:00 +26°C° 0 mm 1 mps 759 mmHg 63%
    09:00 +28°C° 0 mm 1 mps 759 mmHg 55%
    10:00 +30°C° 0 mm 1 mps 759 mmHg 47%
    11:00 +31°C° 0 mm 1 mps 759 mmHg 44%
    12:00 +31°C° 0 mm 1 mps 759 mmHg 40%
    13:00 +32°C° 0 mm 2 mps 759 mmHg 37%
    14:00 +34°C° 0 mm 2 mps 759 mmHg 36%
    15:00 +34°C° 0 mm 2 mps 759 mmHg 35%
    16:00 +34°C° 0 mm 2 mps 758 mmHg 33%
    17:00 +31°C° 0.1 mm 1 mps 758 mmHg 39%
    18:00 +29°C° 0.1 mm 1 mps 759 mmHg 44%
    19:00 +25°C° 0.1 mm 0 mps 759 mmHg 50%
    20:00 +24°C° 0.9 mm 0 mps 759 mmHg 54%
    21:00 +23°C° 0.9 mm 0 mps 759 mmHg 59%
    22:00 +22°C° 0.9 mm 0 mps 760 mmHg 63%
    23:00 +23°C° 0.5 mm 1 mps 760 mmHg 68%
    Show more